Content
SEND FEEDBACK

Daily
Averages
Monthly
Summary
Portugal

SANTA MARIA, PORTUGAL


Home > Europe > Portugal
Elevation: 328 feet     Latitude: 36 58N     Longitude: 025 10W

WEATHER
 
SELECT A DAY
Number of Records: 256,168;   Date Range: 7/1/96 - 9/3/14
 
SHARE

PRINT THIS DATA

[ ← Previous Day ]
WEATHER ALMANAC - JANUARY 31, 2013
[ Next Day → ]
[ °C ]   °F
Weather ElementAverageHighLow
Temperature61.4 °F65 °F (11:00 am)57.2 °F (4:30 am)
Dewpoint59.3 °F62 °F (11:00 am)55.4 °F (4:30 am)
Humidity92.7 %100 % (12:30 am)83 % (5:00 pm)
Barometer30.15 in30.30 in (11:00 pm)30.06 in (12:30 am)
Wind Speed18.3 mph26.8 mph (2:00 am)
Weather ElementAverage
Visibility6.7 mi
Wind DirectionSSW (191.1 °)

Weather ElementTotal
Precipitation---
Heating Degree Days3.9 (Base 65)
Growing Degree Days11.1 (Base 50)
Averaged from 55 records on January 31, 2013
WEATHER CONDITIONS BREAKOUT
WIND DIRECTION BREAKOUT
WEATHER BY HOUR - JANUARY 31, 2013
[ °C ]   °F
Local TimeTemperatureDewpointHumidityBarometerVisibilityWind DirectionWind SpeedGust SpeedPrecipitationEventsConditions
12:30 AM59.0 °F59.0 °F100 %30.06 in6.2 miSouth (190°)23.0 mphMostly Cloudy
1:00 AM60.8 °F59.0 °F94 %30.06 in6.2 miSouth (190°)24.2 mphMostly Cloudy
1:30 AM60.8 °F59.0 °F94 %30.09 in6.2 miSouth (180°)23.0 mphMostly Cloudy
2:00 AM62.0 °F61.0 °F94 %30.09 in9.0 miSSW (200°)26.8 mphPartly Cloudy
2:00 AM60.8 °F59.0 °F94 %30.06 in6.2 miSouth (180°)21.9 mphScattered Clouds
2:30 AM60.8 °F59.0 °F94 %30.06 in6.2 miSouth (180°)20.7 mphMostly Cloudy
3:00 AM60.8 °F59.0 °F94 %30.06 in6.2 miSouth (180°)21.9 mphMostly Cloudy
3:30 AM60.8 °F59.0 °F94 %30.06 in6.2 miSouth (180°)21.9 mphMostly Cloudy
4:00 AM60.8 °F59.0 °F94 %30.06 in6.2 miSouth (180°)21.9 mphMostly Cloudy
4:30 AM57.2 °F55.4 °F94 %30.06 in6.2 miSW (230°)12.7 mphMostly Cloudy
5:00 AM59.0 °F58.0 °F95 %30.10 in9.0 miSW (220°)8.9 mphMostly Cloudy
5:00 AM57.2 °F57.2 °F100 %30.06 in6.2 miSSW (200°)9.2 mphMostly Cloudy
5:30 AM59.0 °F57.2 °F94 %30.06 in6.2 miSSW (200°)11.5 mphMostly Cloudy
6:00 AM59.0 °F57.2 °F94 %30.06 in6.2 miSouth (190°)13.8 mphScattered Clouds
6:30 AM59.0 °F57.2 °F94 %30.06 in6.2 miSouth (180°)15.0 mphPartly Cloudy
7:00 AM59.0 °F57.2 °F94 %30.09 in6.2 miSouth (190°)15.0 mphPartly Cloudy
7:30 AM59.0 °F57.2 °F94 %30.09 in6.2 miSouth (180°)16.1 mphScattered Clouds
8:00 AM61.0 °F60.0 °F97 %30.17 in6.0 miSSW (210°)17.9 mphRainLight Rain Showers
8:00 AM60.8 °F59.0 °F94 %30.12 in5.6 miSouth (190°)17.3 mphScattered Clouds
8:30 AM60.8 °F59.0 °F94 %30.12 in6.2 miSSW (200°)13.8 mphScattered Clouds
9:00 AM60.8 °F59.0 °F94 %30.15 in6.2 miSouth (180°)16.1 mphScattered Clouds
9:30 AM62.6 °F60.8 °F94 %30.15 in6.2 miSouth (180°)17.3 mphScattered Clouds
10:00 AM62.6 °F60.8 °F94 %30.15 in6.2 miSouth (190°)17.3 mphScattered Clouds
10:30 AM62.6 °F60.8 °F94 %30.15 in6.2 miSouth (190°)18.4 mphScattered Clouds
11:00 AM65.0 °F62.0 °F89 %30.19 in16.0 miSSW (200°)22.4 mphPartly Cloudy
11:00 AM62.6 °F60.8 °F94 %30.18 in6.2 miSouth (190°)18.4 mphScattered Clouds
11:30 AM64.4 °F60.8 °F88 %30.18 in6.2 miSouth (180°)17.3 mphScattered Clouds
12:00 PM64.4 °F60.8 °F88 %30.18 in6.2 miSouth (180°)19.6 mphScattered Clouds
12:30 PM64.4 °F60.8 °F88 %30.18 in6.2 miSouth (180°)19.6 mphScattered Clouds
1:00 PM64.4 °F60.8 °F88 %30.15 in6.2 miSouth (180°)19.6 mphScattered Clouds
1:30 PM64.4 °F60.8 °F88 %30.15 in6.2 miSouth (180°)19.6 mphScattered Clouds
2:00 PM65.0 °F62.0 °F86 %30.16 in16.0 miSSW (200°)24.6 mphPartly Cloudy
2:00 PM64.4 °F60.8 °F88 %30.15 in6.2 miSouth (180°)19.6 mphScattered Clouds
2:30 PM62.6 °F60.8 °F94 %30.15 in6.2 miSouth (180°)16.1 mphPartly Cloudy
3:00 PM62.6 °F60.8 °F94 %30.15 in6.2 miSouth (180°)19.6 mphPartly Cloudy
3:30 PM62.6 °F60.8 °F94 %30.15 in6.2 miSouth (180°)19.6 mphPartly Cloudy
4:00 PM62.6 °F59.0 °F88 %30.15 in6.2 miSouth (180°)20.7 mphPartly Cloudy
4:30 PM62.6 °F59.0 °F88 %30.15 in6.2 miSouth (180°)21.9 mphPartly Cloudy
5:00 PM64.0 °F60.0 °F83 %30.19 in7.0 miSSW (200°)24.6 mphScattered Clouds
5:00 PM62.6 °F59.0 °F88 %30.18 in6.2 miSouth (180°)19.6 mphPartly Cloudy
5:30 PM60.8 °F59.0 °F94 %30.18 in6.2 miSouth (180°)19.6 mphPartly Cloudy
6:00 PM60.8 °F59.0 °F94 %30.18 in6.2 miSouth (180°)18.4 mphPartly Cloudy
6:30 PM60.8 °F59.0 °F94 %30.21 in6.2 miSouth (180°)18.4 mphPartly Cloudy
7:00 PM60.8 °F57.2 °F88 %30.21 in6.2 miSouth (180°)18.4 mphPartly Cloudy
7:30 PM60.8 °F57.2 °F88 %30.21 in6.2 miSouth (190°)17.3 mphPartly Cloudy
8:00 PM62.0 °F61.0 °F94 %30.26 in7.0 miSSW (210°)22.4 mphScattered Clouds
8:00 PM60.8 °F59.0 °F94 %30.24 in6.2 miSouth (190°)18.4 mphPartly Cloudy
8:30 PM60.8 °F59.0 °F94 %30.24 in6.2 miSSW (200°)18.4 mphPartly Cloudy
9:00 PM60.8 °F59.0 °F94 %30.24 in6.2 miSSW (200°)17.3 mphScattered Clouds
9:30 PM60.8 °F59.0 °F94 %30.24 in6.2 miSSW (200°)20.7 mphMostly Cloudy
10:00 PM60.8 °F59.0 °F94 %30.27 in6.2 miSSW (210°)16.1 mphMostly Cloudy
10:30 PM60.8 °F59.0 °F94 %30.27 in6.2 miSSW (210°)13.8 mphMostly Cloudy
11:00 PM62.0 °F61.0 °F94 %30.30 in7.0 miSW (220°)13.4 mphMostly Cloudy
11:00 PM60.8 °F59.0 °F94 %30.27 in6.2 miSSW (210°)15.0 mphMostly Cloudy
11:30 PM60.8 °F59.0 °F94 %30.27 in6.2 miSSW (210°)12.7 mphMostly Cloudy
Hourly data recorded from LPAZ, located miles away from Santa Maria, Portugal







STORIES FROM OUR PARTNERS